DW4063 Weather Reports


Display with metric or nautical units.
time (UTC)temp
F
wind
direction
speed
MPH
gust
MPH
rain 1hr
in
rain 24hr
in
rain mn
in
humidity
%
barometer
mb
20200401093027 37 322 0.0 0.0 0.00 0.00 0.00 88 1016.3
20200401090004 36 323 0.0 0.0 0.00 0.00 0.00 88 1016.2
20200401084506 36 323 0.0 0.0 0.00 0.00 0.00 88 1016.1
20200401083007 36 322 0.0 0.0 0.00 0.00 0.00 88 1016.3
20200401081509 36 323 0.0 0.0 0.00 0.00 0.00 88 1016.1
20200401080125 37 323 0.0 0.0 0.00 0.00 0.00 89 1016.0
20200401074713 37 323 0.0 0.0 0.00 0.00 0.00 89 1016.2
20200401073209 37 323 0.0 0.0 0.00 0.00 0.00 88 1016.1
20200401071724 37 323 0.0 0.0 0.00 0.00 0.00 88 1016.3
20200401070216 37 322 0.0 0.0 0.00 0.00 0.00 88 1016.3
20200401064607 37 322 0.0 0.0 0.00 0.00 0.00 88 1016.2
20200401063229 37 321 0.0 0.0 0.00 0.00 0.00 88 1016.3
20200401061858 37 321 0.0 0.0 0.00 0.00 0.00 88 1016.3
20200401060110 37 321 0.0 0.0 0.00 0.00 0.00 88 1016.5
20200401054625 37 321 0.0 0.0 0.00 0.00 0.00 88 1016.5
20200401053159 37 321 0.0 0.0 0.00 0.00 0.00 88 1016.4
20200401051628 37 322 0.0 0.0 0.00 0.00 0.00 88 1016.6
20200401050145 37 340 0.0 0.0 0.00 0.00 0.00 88 1016.7
20200401044623 37 344 0.0 0.0 0.00 0.00 0.00 87 1016.6
20200401043123 38 344 0.0 0.0 0.00 0.00 0.00 87 1016.7
20200401041619 38 344 0.0 0.0 0.00 0.00 0.00 87 1016.8
20200401040124 38 347 0.0 0.0 0.00 0.00 0.00 86 1016.6
20200401034630 38 347 0.0 0.0 0.00 0.00 0.00 86 1016.4
20200401033322 38 347 0.0 0.0 0.00 0.00 0.00 86 1016.6
20200401031618 38 347 0.0 0.0 0.00 0.00 0.00 86 1016.6
20200401030215 38 347 0.0 0.0 0.00 0.00 0.00 86 1016.6
20200401024624 38 347 0.0 0.0 0.00 0.00 0.00 86 1016.6
20200401023127 38 346 0.0 0.0 0.00 0.00 0.00 85 1016.5
20200401021636 38 345 1.0 0.0 0.00 0.00 0.00 85 1016.4
20200401020153 38 34 0.0 0.0 0.00 0.00 0.00 86 1016.3
20200401014550 38 35 0.0 0.0 0.00 0.00 0.00 85 1016.2
20200401013102 38 34 1.0 0.0 0.00 0.00 0.00 85 1016.2
20200401011636 39 35 0.0 0.0 0.00 0.00 0.00 85 1016.0
20200401010039 39 24 1.0 0.0 0.00 0.00 0.00 85 1015.9
20200401004625 39 11 1.0 0.0 0.00 0.00 0.00 85 1015.9
20200401003040 39 5 1.0 0.0 0.00 0.00 0.00 85 1015.9
20200401001557 39 25 1.0 0.0 0.00 0.00 0.00 85 1015.8
20200401000041 39 26 1.0 0.0 0.00 0.00 0.00 85 1015.7
20200331234535 39 24 1.0 0.0 0.00 0.00 0.00 84 1015.8
20200331233148 40 89 0.0 0.0 0.00 0.00 0.00 83 1015.8
20200331231623 40 40 1.0 0.0 0.00 0.00 0.00 84 1015.8
20200331230059 40 342 2.0 0.0 0.00 0.00 0.00 83 1015.7
20200331224605 40 355 1.0 0.0 0.00 0.00 0.00 83 1015.8
20200331223106 40 355 2.0 0.0 0.00 0.00 0.00 83 1015.8
20200331221628 40 16 1.0 0.0 0.00 0.00 0.00 84 1015.7
20200331220101 40 51 2.0 0.0 0.00 0.00 0.00 83 1015.6
20200331214550 41 13 0.0 0.0 0.00 0.00 0.00 84 1015.5
20200331213038 40 13 1.0 0.0 0.00 0.00 0.00 84 1015.4
20200331211607 40 346 2.0 0.0 0.00 0.00 0.00 83 1015.2
20200331210029 40 37 1.0 0.0 0.00 0.00 0.00 82 1015.0
20200331204559 41 5 1.0 0.0 0.00 0.00 0.00 81 1015.0
20200331203034 41 346 1.0 0.0 0.00 0.00 0.00 80 1015.0
20200331201547 41 11 2.0 0.0 0.00 0.00 0.00 80 1015.0
20200331200050 41 21 0.0 0.0 0.00 0.00 0.00 80 1015.0
20200331194542 41 74 1.0 0.0 0.00 0.00 0.00 80 1015.1
20200331193029 41 88 2.0 0.0 0.00 0.00 0.00 79 1015.1
20200331191541 41 360 2.0 0.0 0.00 0.00 0.00 79 1015.2
20200331190023 41 340 1.0 0.0 0.00 0.00 0.00 80 1015.2
20200331184521 40 360 2.0 0.0 0.00 0.00 0.00 81 1015.3
20200331183018 40 10 2.0 0.0 0.00 0.00 0.00 81 1015.5
20200331181519 40 346 2.0 0.0 0.00 0.00 0.00 83 1015.5
20200331180044 39 323 1.0 0.0 0.00 0.00 0.00 84 1015.6
20200331174550 39 32 1.0 0.0 0.00 0.00 0.00 84 1015.7
20200331173019 39 342 2.0 0.0 0.00 0.00 0.00 84 1015.8
20200331171540 39 48 1.0 0.0 0.00 0.00 0.00 85 1016.0
20200331170033 39 360 2.0 0.0 0.00 0.00 0.00 85 1016.1
20200331164517 39 342 2.0 0.0 0.00 0.00 0.00 84 1016.3
20200331163012 39 91 1.0 0.0 0.00 0.00 0.00 86 1016.4
20200331161513 38 56 2.0 0.0 0.00 0.00 0.00 86 1016.5
20200331160033 38 38 1.0 0.0 0.00 0.00 0.00 85 1016.5
20200331154536 38 322 1.0 0.0 0.00 0.00 0.00 86 1016.6
20200331153004 38 360 1.0 0.0 0.00 0.00 0.00 85 1016.7
20200331151504 38 344 1.0 0.0 0.00 0.00 0.00 86 1016.7
20200331150004 37 350 0.0 0.0 0.00 0.00 0.00 87 1016.9
20200331144513 37 350 0.0 0.0 0.00 0.00 0.00 87 1016.9
20200331143148 37 5 1.0 0.0 0.00 0.00 0.00 88 1016.9
20200331141939 37 10 1.0 0.0 0.00 0.00 0.00 88 1017.1
20200331140243 36 5 0.0 0.0 0.00 0.00 0.00 87 1017.1
20200331134610 36 5 1.0 0.0 0.00 0.00 0.00 87 1017.1
20200331133133 36 5 1.0 0.0 0.00 0.00 0.00 86 1017.1
20200331131713 36 5 1.0 0.0 0.00 0.00 0.00 85 1017.2
20200331130114 36 355 0.0 0.0 0.00 0.00 0.00 84 1017.2
20200331124613 36 355 0.0 0.0 0.00 0.00 0.00 84 1017.3
20200331123128 36 5 0.0 0.0 0.00 0.00 0.00 85 1017.2
20200331121635 36 5 1.0 0.0 0.00 0.00 0.00 85 1017.2
20200331120118 36 22 0.0 0.0 0.00 0.00 0.00 84 1017.2
20200331114731 36 38 1.0 0.0 0.00 0.00 0.00 84 1017.2
20200331113100 36 5 0.0 0.0 0.00 0.00 0.00 84 1017.2
20200331111636 36 5 0.0 0.0 0.00 0.00 0.00 84 1017.3
20200331110128 36 5 1.0 0.0 0.00 0.00 0.00 83 1017.3
20200331104629 36 355 1.0 0.0 0.00 0.00 0.00 83 1017.2
20200331103139 36 92 1.0 0.0 0.00 0.00 0.00 83 1017.2
20200331101603 36 32 0.0 0.0 0.00 0.00 0.00 83 1017.3
20200331100134 37 34 0.0 0.0 0.00 0.00 0.00 83 1017.5
20200331094600 37 33 0.0 0.0 0.00 0.00 0.00 83 1017.6